Year,Month,Day,Hour,Minute,Value (Times are PST for temperature in C)
2017,07,07,00,00,17.00
2017,07,07,00,01,17.00
2017,07,07,00,02,17.00
2017,07,07,00,03,16.90
2017,07,07,00,04,16.90
2017,07,07,00,05,16.90
2017,07,07,00,06,16.90
2017,07,07,00,07,16.80
2017,07,07,00,08,16.80
2017,07,07,00,09,16.80
2017,07,07,00,10,16.80
2017,07,07,00,11,16.80
2017,07,07,00,12,16.70
2017,07,07,00,13,16.70
2017,07,07,00,14,16.70
2017,07,07,00,15,16.70
2017,07,07,00,16,16.60
2017,07,07,00,17,16.60
2017,07,07,00,18,16.60
2017,07,07,00,19,16.50
2017,07,07,00,20,16.50
2017,07,07,00,21,16.50
2017,07,07,00,22,16.40
2017,07,07,00,23,16.40
2017,07,07,00,24,16.40
2017,07,07,00,25,16.40
2017,07,07,00,26,16.40
2017,07,07,00,27,16.30
2017,07,07,00,28,16.30
2017,07,07,00,29,16.30
2017,07,07,00,30,16.30
2017,07,07,00,31,16.20
2017,07,07,00,32,16.20
2017,07,07,00,33,16.20
2017,07,07,00,34,16.20
2017,07,07,00,35,16.10
2017,07,07,00,36,16.10
2017,07,07,00,37,16.10
2017,07,07,00,38,16.00
2017,07,07,00,39,16.00
2017,07,07,00,40,16.00
2017,07,07,00,41,16.00
2017,07,07,00,42,16.00
2017,07,07,00,43,15.90
2017,07,07,00,44,15.90
2017,07,07,00,45,15.90
2017,07,07,00,46,15.90
2017,07,07,00,47,15.90
2017,07,07,00,48,15.90
2017,07,07,00,49,15.90
2017,07,07,00,50,15.90
2017,07,07,00,51,15.90
2017,07,07,00,52,15.90
2017,07,07,00,53,15.80
2017,07,07,00,54,15.80
2017,07,07,00,55,15.80
2017,07,07,00,56,15.80
2017,07,07,00,57,15.80
2017,07,07,00,58,15.80
2017,07,07,00,59,15.70
2017,07,07,01,00,15.70
2017,07,07,01,01,15.70
2017,07,07,01,02,15.70
2017,07,07,01,03,15.70
2017,07,07,01,04,15.70
2017,07,07,01,05,15.70
2017,07,07,01,06,15.70
2017,07,07,01,07,15.70
2017,07,07,01,08,15.70
2017,07,07,01,09,15.60
2017,07,07,01,10,15.60
2017,07,07,01,11,15.60
2017,07,07,01,12,15.60
2017,07,07,01,13,15.60
2017,07,07,01,14,15.60
2017,07,07,01,15,15.50
2017,07,07,01,16,15.50
2017,07,07,01,17,15.50
2017,07,07,01,18,15.50
2017,07,07,01,19,15.40
2017,07,07,01,20,15.40
2017,07,07,01,21,15.40
2017,07,07,01,22,15.40
2017,07,07,01,23,15.30
2017,07,07,01,24,15.30
2017,07,07,01,25,15.30
2017,07,07,01,26,15.30
2017,07,07,01,27,15.30
2017,07,07,01,28,15.30
2017,07,07,01,29,15.30
2017,07,07,01,30,15.30
2017,07,07,01,31,15.30
2017,07,07,01,32,15.30
2017,07,07,01,33,15.20
2017,07,07,01,34,15.20
2017,07,07,01,35,15.20
2017,07,07,01,36,15.20
2017,07,07,01,37,15.20
2017,07,07,01,38,15.20
2017,07,07,01,39,15.20
2017,07,07,01,40,15.20
2017,07,07,01,41,15.20
2017,07,07,01,42,15.20
2017,07,07,01,43,15.20
2017,07,07,01,44,15.10
2017,07,07,01,45,15.10
2017,07,07,01,46,15.10
2017,07,07,01,47,15.10
2017,07,07,01,48,15.10
2017,07,07,01,49,15.10
2017,07,07,01,50,15.00
2017,07,07,01,51,15.00
2017,07,07,01,52,15.00
2017,07,07,01,53,15.00
2017,07,07,01,54,15.00
2017,07,07,01,55,15.00
2017,07,07,01,56,15.00
2017,07,07,01,57,15.00
2017,07,07,01,58,15.00
2017,07,07,01,59,15.00
2017,07,07,02,00,15.00
2017,07,07,02,01,15.00
2017,07,07,02,02,15.00
2017,07,07,02,03,14.90
2017,07,07,02,04,14.90
2017,07,07,02,05,14.90
2017,07,07,02,06,14.80
2017,07,07,02,07,14.80
2017,07,07,02,08,14.80
2017,07,07,02,09,14.80
2017,07,07,02,10,14.70
2017,07,07,02,11,14.70
2017,07,07,02,12,14.70
2017,07,07,02,13,14.70
2017,07,07,02,14,14.70
2017,07,07,02,15,14.60
2017,07,07,02,16,14.60
2017,07,07,02,17,14.60
2017,07,07,02,18,14.60
2017,07,07,02,19,14.60
2017,07,07,02,20,14.60
2017,07,07,02,21,14.60
2017,07,07,02,22,14.60
2017,07,07,02,23,14.50
2017,07,07,02,24,14.50
2017,07,07,02,25,14.50
2017,07,07,02,26,14.50
2017,07,07,02,27,14.50
2017,07,07,02,28,14.50
2017,07,07,02,29,14.50
2017,07,07,02,30,14.50
2017,07,07,02,31,14.40
2017,07,07,02,32,14.40
2017,07,07,02,33,14.40
2017,07,07,02,34,14.40
2017,07,07,02,35,14.40
2017,07,07,02,36,14.30
2017,07,07,02,37,14.30
2017,07,07,02,38,14.30
2017,07,07,02,39,14.30
2017,07,07,02,40,14.30
2017,07,07,02,41,14.30
2017,07,07,02,42,14.30
2017,07,07,02,43,14.30
2017,07,07,02,44,14.30
2017,07,07,02,45,14.30
2017,07,07,02,46,14.20
2017,07,07,02,47,14.20
2017,07,07,02,48,14.20
2017,07,07,02,49,14.20
2017,07,07,02,50,14.20
2017,07,07,02,51,14.10
2017,07,07,02,52,14.10
2017,07,07,02,53,14.10
2017,07,07,02,54,14.10
2017,07,07,02,55,14.10
2017,07,07,02,56,14.00
2017,07,07,02,57,14.00
2017,07,07,02,58,14.00
2017,07,07,02,59,14.00
2017,07,07,03,00,14.00
2017,07,07,03,01,13.90
2017,07,07,03,02,13.90
2017,07,07,03,03,13.90
2017,07,07,03,04,13.90
2017,07,07,03,05,13.90
2017,07,07,03,06,13.90
2017,07,07,03,07,13.90
2017,07,07,03,08,13.90
2017,07,07,03,09,13.90
2017,07,07,03,10,13.90
2017,07,07,03,11,13.80
2017,07,07,03,12,13.80
2017,07,07,03,13,13.80
2017,07,07,03,14,13.80
2017,07,07,03,15,13.80
2017,07,07,03,16,13.80
2017,07,07,03,17,13.80
2017,07,07,03,18,13.70
2017,07,07,03,19,13.70
2017,07,07,03,20,13.70
2017,07,07,03,21,13.70
2017,07,07,03,22,13.70
2017,07,07,03,23,13.70
2017,07,07,03,24,13.70
2017,07,07,03,25,13.60
2017,07,07,03,26,13.60
2017,07,07,03,27,13.60
2017,07,07,03,28,13.60
2017,07,07,03,29,13.60
2017,07,07,03,30,13.60
2017,07,07,03,31,13.60
2017,07,07,03,32,13.60
2017,07,07,03,33,13.70
2017,07,07,03,34,13.70
2017,07,07,03,35,13.80
2017,07,07,03,36,13.80
2017,07,07,03,37,13.80
2017,07,07,03,38,13.90
2017,07,07,03,39,13.90
2017,07,07,03,40,13.90
2017,07,07,03,41,13.90
2017,07,07,03,42,13.90
2017,07,07,03,43,13.90
2017,07,07,03,44,13.90
2017,07,07,03,45,13.90
2017,07,07,03,46,13.90
2017,07,07,03,47,13.80
2017,07,07,03,48,13.80
2017,07,07,03,49,13.80
2017,07,07,03,50,13.80
2017,07,07,03,51,13.80
2017,07,07,03,52,13.70
2017,07,07,03,53,13.70
2017,07,07,03,54,13.70
2017,07,07,03,55,13.70
2017,07,07,03,56,13.60
2017,07,07,03,57,13.60
2017,07,07,03,58,13.60
2017,07,07,03,59,13.60
2017,07,07,04,00,13.60
2017,07,07,04,01,13.60
2017,07,07,04,02,13.50
2017,07,07,04,03,13.50
2017,07,07,04,04,13.50
2017,07,07,04,05,13.40
2017,07,07,04,06,13.40
2017,07,07,04,07,13.40
2017,07,07,04,08,13.40
2017,07,07,04,09,13.40
2017,07,07,04,10,13.40
2017,07,07,04,11,13.50
2017,07,07,04,12,13.50
2017,07,07,04,13,13.50
2017,07,07,04,14,13.60
2017,07,07,04,15,13.60
2017,07,07,04,16,13.60
2017,07,07,04,17,13.60
2017,07,07,04,18,13.60
2017,07,07,04,19,13.60
2017,07,07,04,20,13.60
2017,07,07,04,21,13.60
2017,07,07,04,22,13.60
2017,07,07,04,23,13.60
2017,07,07,04,24,13.60
2017,07,07,04,25,13.60
2017,07,07,04,26,13.60
2017,07,07,04,27,13.60
2017,07,07,04,28,13.60
2017,07,07,04,29,13.60
2017,07,07,04,30,13.60
2017,07,07,04,31,13.60
2017,07,07,04,32,13.60
2017,07,07,04,33,13.60
2017,07,07,04,34,13.60
2017,07,07,04,35,13.60
2017,07,07,04,36,13.60
2017,07,07,04,37,13.60
2017,07,07,04,38,13.60
2017,07,07,04,39,13.60
2017,07,07,04,40,13.50
2017,07,07,04,41,13.50
2017,07,07,04,42,13.50
2017,07,07,04,43,13.50
2017,07,07,04,44,13.50
2017,07,07,04,45,13.40
2017,07,07,04,46,13.40
2017,07,07,04,47,13.40
2017,07,07,04,48,13.40
2017,07,07,04,49,13.40
2017,07,07,04,50,13.40
2017,07,07,04,51,13.40
2017,07,07,04,52,13.30
2017,07,07,04,53,13.30
2017,07,07,04,54,13.30
2017,07,07,04,55,13.30
2017,07,07,04,56,13.30
2017,07,07,04,57,13.20
2017,07,07,04,58,13.20
2017,07,07,04,59,13.20
2017,07,07,05,00,13.20
2017,07,07,05,01,13.20
2017,07,07,05,02,13.10
2017,07,07,05,03,13.10
2017,07,07,05,04,13.10
2017,07,07,05,05,13.10
2017,07,07,05,06,13.10
2017,07,07,05,07,13.00
2017,07,07,05,08,13.00
2017,07,07,05,09,13.00
2017,07,07,05,10,13.00
2017,07,07,05,11,13.00
2017,07,07,05,12,12.90
2017,07,07,05,13,12.90
2017,07,07,05,14,12.90
2017,07,07,05,15,12.90
2017,07,07,05,16,12.90
2017,07,07,05,17,12.90
2017,07,07,05,18,12.90
2017,07,07,05,19,12.90
2017,07,07,05,20,12.80
2017,07,07,05,21,12.80
2017,07,07,05,22,12.80
2017,07,07,05,23,12.80
2017,07,07,05,24,12.80
2017,07,07,05,25,12.80
2017,07,07,05,26,12.80
2017,07,07,05,27,12.80
2017,07,07,05,28,12.70
2017,07,07,05,29,12.70
2017,07,07,05,30,12.70
2017,07,07,05,31,12.70
2017,07,07,05,32,12.70
2017,07,07,05,33,12.70
2017,07,07,05,34,12.70
2017,07,07,05,35,12.70
2017,07,07,05,36,12.70
2017,07,07,05,37,12.70
2017,07,07,05,38,12.70
2017,07,07,05,39,12.70
2017,07,07,05,40,12.70
2017,07,07,05,41,12.70
2017,07,07,05,42,12.70
2017,07,07,05,43,12.70
2017,07,07,05,44,12.70
2017,07,07,05,45,12.80
2017,07,07,05,46,12.80
2017,07,07,05,47,12.80
2017,07,07,05,48,12.80
2017,07,07,05,49,12.90
2017,07,07,05,50,12.90
2017,07,07,05,51,12.90
2017,07,07,05,52,12.90
2017,07,07,05,53,13.00
2017,07,07,05,54,13.00
2017,07,07,05,55,13.10
2017,07,07,05,56,13.10
2017,07,07,05,57,13.10
2017,07,07,05,58,13.10
2017,07,07,05,59,13.20
2017,07,07,06,00,13.30
2017,07,07,06,01,13.30
2017,07,07,06,02,13.40
2017,07,07,06,03,13.40
2017,07,07,06,04,13.40
2017,07,07,06,05,13.40
2017,07,07,06,06,13.40
2017,07,07,06,07,13.50
2017,07,07,06,08,13.50
2017,07,07,06,09,13.50
2017,07,07,06,10,13.60
2017,07,07,06,11,13.70
2017,07,07,06,12,13.80
2017,07,07,06,13,13.90
2017,07,07,06,14,13.90
2017,07,07,06,15,14.00
2017,07,07,06,16,14.10
2017,07,07,06,17,14.10
2017,07,07,06,18,14.10
2017,07,07,06,19,14.10
2017,07,07,06,20,14.20
2017,07,07,06,21,14.20
2017,07,07,06,22,14.20
2017,07,07,06,23,14.20
2017,07,07,06,24,14.20
2017,07,07,06,25,14.30
2017,07,07,06,26,14.50
2017,07,07,06,27,14.70
2017,07,07,06,28,14.90
2017,07,07,06,29,15.00
2017,07,07,06,30,15.10
2017,07,07,06,31,15.20
2017,07,07,06,32,15.30
2017,07,07,06,33,15.40
2017,07,07,06,34,15.50
2017,07,07,06,35,15.60
2017,07,07,06,36,15.60
2017,07,07,06,37,15.70
2017,07,07,06,38,15.70
2017,07,07,06,39,15.70
2017,07,07,06,40,15.70
2017,07,07,06,41,15.70
2017,07,07,06,42,15.70
2017,07,07,06,43,15.70
2017,07,07,06,44,15.60
2017,07,07,06,45,15.60
2017,07,07,06,46,15.70
2017,07,07,06,47,15.70
2017,07,07,06,48,15.70
2017,07,07,06,49,15.70
2017,07,07,06,50,15.80
2017,07,07,06,51,15.80
2017,07,07,06,52,15.80
2017,07,07,06,53,15.80
2017,07,07,06,54,15.80
2017,07,07,06,55,15.80
2017,07,07,06,56,15.80
2017,07,07,06,57,15.90
2017,07,07,06,58,15.90
2017,07,07,06,59,15.90
2017,07,07,07,00,16.00
2017,07,07,07,01,16.00
2017,07,07,07,02,16.00
2017,07,07,07,03,16.00
2017,07,07,07,04,16.10
2017,07,07,07,05,16.10
2017,07,07,07,06,16.10
2017,07,07,07,07,16.10
2017,07,07,07,08,16.10
2017,07,07,07,09,16.10
2017,07,07,07,10,16.10
2017,07,07,07,11,16.20
2017,07,07,07,12,16.20
2017,07,07,07,13,16.20
2017,07,07,07,14,16.30
2017,07,07,07,15,16.30
2017,07,07,07,16,16.30
2017,07,07,07,17,16.30
2017,07,07,07,18,16.30
2017,07,07,07,19,16.30
2017,07,07,07,20,16.30
2017,07,07,07,21,16.30
2017,07,07,07,22,16.30
2017,07,07,07,23,16.30
2017,07,07,07,24,16.30
2017,07,07,07,25,16.30
2017,07,07,07,26,16.30
2017,07,07,07,27,16.30
2017,07,07,07,28,16.30
2017,07,07,07,29,16.30
2017,07,07,07,30,16.40
2017,07,07,07,31,16.40
2017,07,07,07,32,16.40
2017,07,07,07,33,16.50
2017,07,07,07,34,16.50
2017,07,07,07,35,16.60
2017,07,07,07,36,16.60
2017,07,07,07,37,16.60
2017,07,07,07,38,16.60
2017,07,07,07,39,16.70
2017,07,07,07,40,16.70
2017,07,07,07,41,16.70
2017,07,07,07,42,16.80
2017,07,07,07,43,16.80
2017,07,07,07,44,16.80
2017,07,07,07,45,16.80
2017,07,07,07,46,16.80
2017,07,07,07,47,16.80
2017,07,07,07,48,16.90
2017,07,07,07,49,16.90
2017,07,07,07,50,16.90
2017,07,07,07,51,17.00
2017,07,07,07,52,16.90
2017,07,07,07,53,16.90
2017,07,07,07,54,16.90
2017,07,07,07,55,17.00
2017,07,07,07,56,17.00
2017,07,07,07,57,17.00
2017,07,07,07,58,17.00
2017,07,07,07,59,17.00
2017,07,07,08,00,17.00
2017,07,07,08,01,17.10
2017,07,07,08,02,17.10
2017,07,07,08,03,17.10
2017,07,07,08,04,17.20
2017,07,07,08,05,17.20
2017,07,07,08,06,17.20
2017,07,07,08,07,17.30
2017,07,07,08,08,17.40
2017,07,07,08,09,17.40
2017,07,07,08,10,17.40
2017,07,07,08,11,17.40
2017,07,07,08,12,17.40
2017,07,07,08,13,17.40
2017,07,07,08,14,17.40
2017,07,07,08,15,17.40
2017,07,07,08,16,17.40
2017,07,07,08,17,17.30
2017,07,07,08,18,17.30
2017,07,07,08,19,17.30
2017,07,07,08,20,17.30
2017,07,07,08,21,17.30
2017,07,07,08,22,17.30
2017,07,07,08,23,17.30
2017,07,07,08,24,17.40
2017,07,07,08,25,17.40
2017,07,07,08,26,17.40
2017,07,07,08,27,17.40
2017,07,07,08,28,17.50
2017,07,07,08,29,17.50
2017,07,07,08,30,17.50
2017,07,07,08,31,17.50
2017,07,07,08,32,17.60
2017,07,07,08,33,17.60
2017,07,07,08,34,17.70
2017,07,07,08,35,17.70
2017,07,07,08,36,17.70
2017,07,07,08,37,17.70
2017,07,07,08,38,17.70
2017,07,07,08,39,17.70
2017,07,07,08,40,17.80
2017,07,07,08,41,17.90
2017,07,07,08,42,17.90
2017,07,07,08,43,17.90
2017,07,07,08,44,17.90
2017,07,07,08,45,18.00
2017,07,07,08,46,18.00
2017,07,07,08,47,17.90
2017,07,07,08,48,17.90
2017,07,07,08,49,17.90
2017,07,07,08,50,17.90
2017,07,07,08,51,17.90
2017,07,07,08,52,17.90
2017,07,07,08,53,17.90
2017,07,07,08,54,17.90
2017,07,07,08,55,17.80
2017,07,07,08,56,17.80
2017,07,07,08,57,17.80
2017,07,07,08,58,17.90
2017,07,07,08,59,18.00
2017,07,07,09,00,18.00
2017,07,07,09,01,18.10
2017,07,07,09,02,18.10
2017,07,07,09,03,18.10
2017,07,07,09,04,18.10
2017,07,07,09,05,18.10
2017,07,07,09,06,18.20
2017,07,07,09,07,18.20
2017,07,07,09,08,18.30
2017,07,07,09,09,18.40
2017,07,07,09,10,18.40
2017,07,07,09,11,18.50
2017,07,07,09,12,18.50
2017,07,07,09,13,18.50
2017,07,07,09,14,18.60
2017,07,07,09,15,18.50
2017,07,07,09,16,18.50
2017,07,07,09,17,18.60
2017,07,07,09,18,18.60
2017,07,07,09,19,18.60
2017,07,07,09,20,18.60
2017,07,07,09,21,18.70
2017,07,07,09,22,18.80
2017,07,07,09,23,18.90
2017,07,07,09,24,18.90
2017,07,07,09,25,19.00
2017,07,07,09,26,19.10
2017,07,07,09,27,19.10
2017,07,07,09,28,19.20
2017,07,07,09,29,19.30
2017,07,07,09,30,19.30
2017,07,07,09,31,19.40
2017,07,07,09,32,19.30
2017,07,07,09,33,19.40
2017,07,07,09,34,19.30
2017,07,07,09,35,19.30
2017,07,07,09,36,19.20
2017,07,07,09,37,19.20
2017,07,07,09,38,19.20
2017,07,07,09,39,19.20
2017,07,07,09,40,19.20
2017,07,07,09,41,19.30
2017,07,07,09,42,19.20
2017,07,07,09,43,19.20
2017,07,07,09,44,19.20
2017,07,07,09,45,19.30
2017,07,07,09,46,19.40
2017,07,07,09,47,19.50
2017,07,07,09,48,19.60
2017,07,07,09,49,19.60
2017,07,07,09,50,19.70
2017,07,07,09,51,19.60
2017,07,07,09,52,19.50
2017,07,07,09,53,19.40
2017,07,07,09,54,19.40
2017,07,07,09,55,19.40
2017,07,07,09,56,19.40
2017,07,07,09,57,19.50
2017,07,07,09,58,19.50
2017,07,07,09,59,19.50
2017,07,07,10,00,19.40
2017,07,07,10,01,19.40
2017,07,07,10,02,19.40
2017,07,07,10,03,19.30
2017,07,07,10,04,19.30
2017,07,07,10,05,19.20
2017,07,07,10,06,19.20
2017,07,07,10,07,19.10
2017,07,07,10,08,19.10
2017,07,07,10,09,19.10
2017,07,07,10,10,19.20
2017,07,07,10,11,19.20
2017,07,07,10,12,19.10
2017,07,07,10,13,19.10
2017,07,07,10,14,19.10
2017,07,07,10,15,19.10
2017,07,07,10,16,19.10
2017,07,07,10,17,19.20
2017,07,07,10,18,19.20
2017,07,07,10,19,19.10
2017,07,07,10,20,19.10
2017,07,07,10,21,19.00
2017,07,07,10,22,19.00
2017,07,07,10,23,18.90
2017,07,07,10,24,18.90
2017,07,07,10,25,18.90
2017,07,07,10,26,18.90
2017,07,07,10,27,19.00
2017,07,07,10,28,19.10
2017,07,07,10,29,19.10
2017,07,07,10,30,19.10
2017,07,07,10,31,19.00
2017,07,07,10,32,19.00
2017,07,07,10,33,18.90
2017,07,07,10,34,19.00
2017,07,07,10,35,19.00
2017,07,07,10,36,19.00
2017,07,07,10,37,19.10
2017,07,07,10,38,19.10
2017,07,07,10,39,18.90
2017,07,07,10,40,18.90
2017,07,07,10,41,18.90
2017,07,07,10,42,18.90
2017,07,07,10,43,18.90
2017,07,07,10,44,18.80
2017,07,07,10,45,18.70
2017,07,07,10,46,18.70
2017,07,07,10,47,18.70
2017,07,07,10,48,18.70
2017,07,07,10,49,18.70
2017,07,07,10,50,18.80
2017,07,07,10,51,18.80
2017,07,07,10,52,18.90
2017,07,07,10,53,18.90
2017,07,07,10,54,18.90
2017,07,07,10,55,18.80
2017,07,07,10,56,18.90
2017,07,07,10,57,18.90
2017,07,07,10,58,19.00
2017,07,07,10,59,19.00
2017,07,07,11,00,19.10
2017,07,07,11,01,19.00
2017,07,07,11,02,19.10
2017,07,07,11,03,19.10
2017,07,07,11,04,19.20
2017,07,07,11,05,19.30
2017,07,07,11,06,19.30
2017,07,07,11,07,19.30
2017,07,07,11,08,19.40
2017,07,07,11,09,19.50
2017,07,07,11,10,19.60
2017,07,07,11,11,19.60
2017,07,07,11,12,19.60
2017,07,07,11,13,19.60
2017,07,07,11,14,19.60
2017,07,07,11,15,19.60
2017,07,07,11,16,19.50
2017,07,07,11,17,19.40
2017,07,07,11,18,19.40
2017,07,07,11,19,19.40
2017,07,07,11,20,19.40
2017,07,07,11,21,19.40
2017,07,07,11,22,19.40
2017,07,07,11,23,19.50
2017,07,07,11,24,19.50
2017,07,07,11,25,19.60
2017,07,07,11,26,19.70
2017,07,07,11,27,19.80
2017,07,07,11,28,19.90
2017,07,07,11,29,19.90
2017,07,07,11,30,20.00
2017,07,07,11,31,20.00
2017,07,07,11,32,20.10
2017,07,07,11,33,20.10
2017,07,07,11,34,20.20
2017,07,07,11,35,20.20
2017,07,07,11,36,20.20
2017,07,07,11,37,20.30
2017,07,07,11,38,20.30
2017,07,07,11,39,20.30
2017,07,07,11,40,20.40
2017,07,07,11,41,20.50
2017,07,07,11,42,20.60
2017,07,07,11,43,20.70
2017,07,07,11,44,20.90
2017,07,07,11,45,21.00
2017,07,07,11,46,21.10
2017,07,07,11,47,21.10
2017,07,07,11,48,21.20
2017,07,07,11,49,21.20
2017,07,07,11,50,21.10
2017,07,07,11,51,21.10
2017,07,07,11,52,21.10
2017,07,07,11,53,21.20
2017,07,07,11,54,21.20
2017,07,07,11,55,21.30
2017,07,07,11,56,21.20
2017,07,07,11,57,21.20
2017,07,07,11,58,21.10
2017,07,07,11,59,21.10
2017,07,07,12,00,21.10
2017,07,07,12,01,21.00
2017,07,07,12,02,21.00
2017,07,07,12,03,21.10
2017,07,07,12,04,21.20
2017,07,07,12,05,21.20
2017,07,07,12,06,21.30
2017,07,07,12,07,21.30
2017,07,07,12,08,21.30
2017,07,07,12,09,21.30
2017,07,07,12,10,21.40
2017,07,07,12,11,21.40
2017,07,07,12,12,21.50
2017,07,07,12,13,21.60
2017,07,07,12,14,21.60
2017,07,07,12,15,21.60
2017,07,07,12,16,21.70
2017,07,07,12,17,21.70
2017,07,07,12,18,21.80
2017,07,07,12,19,21.80
2017,07,07,12,20,21.80
2017,07,07,12,21,21.90
2017,07,07,12,22,21.90
2017,07,07,12,23,22.00
2017,07,07,12,24,21.90
2017,07,07,12,25,21.80
2017,07,07,12,26,21.80
2017,07,07,12,27,21.70
2017,07,07,12,28,21.70
2017,07,07,12,29,21.60
2017,07,07,12,30,21.70
2017,07,07,12,31,21.70
2017,07,07,12,32,21.70
2017,07,07,12,33,21.80
2017,07,07,12,34,21.80
2017,07,07,12,35,21.80
2017,07,07,12,36,21.70
2017,07,07,12,37,21.60
2017,07,07,12,38,21.40
2017,07,07,12,39,21.40
2017,07,07,12,40,21.40
2017,07,07,12,41,21.40
2017,07,07,12,42,21.50
2017,07,07,12,43,21.70
2017,07,07,12,44,21.70
2017,07,07,12,45,21.80
2017,07,07,12,46,21.90
2017,07,07,12,47,22.10
2017,07,07,12,48,22.20
2017,07,07,12,49,22.30
2017,07,07,12,50,22.40
2017,07,07,12,51,22.40
2017,07,07,12,52,22.40
2017,07,07,12,53,22.30
2017,07,07,12,54,22.10
2017,07,07,12,55,22.00
2017,07,07,12,56,22.00
2017,07,07,12,57,21.90
2017,07,07,12,58,22.00
2017,07,07,12,59,22.10
2017,07,07,13,00,22.10
2017,07,07,13,01,22.10
2017,07,07,13,02,22.10
2017,07,07,13,03,22.00
2017,07,07,13,04,21.90
2017,07,07,13,05,21.80
2017,07,07,13,06,21.80
2017,07,07,13,07,21.60
2017,07,07,13,08,21.50
2017,07,07,13,09,21.50
2017,07,07,13,10,21.50
2017,07,07,13,11,21.60
2017,07,07,13,12,21.70
2017,07,07,13,13,21.80
2017,07,07,13,14,21.80
2017,07,07,13,15,21.90
2017,07,07,13,16,21.90
2017,07,07,13,17,21.90
2017,07,07,13,18,22.00
2017,07,07,13,19,22.00
2017,07,07,13,20,22.00
2017,07,07,13,21,22.00
2017,07,07,13,22,22.10
2017,07,07,13,23,22.10
2017,07,07,13,24,22.10
2017,07,07,13,25,22.10
2017,07,07,13,26,22.00
2017,07,07,13,27,21.90
2017,07,07,13,28,21.80
2017,07,07,13,29,21.80
2017,07,07,13,30,21.90
2017,07,07,13,31,21.90
2017,07,07,13,32,21.90
2017,07,07,13,33,21.90
2017,07,07,13,34,22.00
2017,07,07,13,35,22.10
2017,07,07,13,36,22.20
2017,07,07,13,37,22.20
2017,07,07,13,38,22.20
2017,07,07,13,39,22.20
2017,07,07,13,40,22.10
2017,07,07,13,41,22.10
2017,07,07,13,42,22.10
2017,07,07,13,43,22.10
2017,07,07,13,44,22.10
2017,07,07,13,45,22.10
2017,07,07,13,46,22.20
2017,07,07,13,47,22.20
2017,07,07,13,48,22.20
2017,07,07,13,49,22.20
2017,07,07,13,50,22.20
2017,07,07,13,51,22.20
2017,07,07,13,52,22.00
2017,07,07,13,53,21.90
2017,07,07,13,54,21.90
2017,07,07,13,55,21.90
2017,07,07,13,56,21.90
2017,07,07,13,57,21.90
2017,07,07,13,58,21.90
2017,07,07,13,59,21.80
2017,07,07,14,00,21.80
2017,07,07,14,01,21.80
2017,07,07,14,02,21.80
2017,07,07,14,03,21.90
2017,07,07,14,04,21.90
2017,07,07,14,05,22.10
2017,07,07,14,06,22.10
2017,07,07,14,07,22.20
2017,07,07,14,08,22.30
2017,07,07,14,09,22.30
2017,07,07,14,10,22.20
2017,07,07,14,11,22.20
2017,07,07,14,12,22.20
2017,07,07,14,13,22.20
2017,07,07,14,14,22.30
2017,07,07,14,15,22.20
2017,07,07,14,16,22.20
2017,07,07,14,17,22.20
2017,07,07,14,18,22.20
2017,07,07,14,19,22.10
2017,07,07,14,20,22.00
2017,07,07,14,21,22.00
2017,07,07,14,22,22.10
2017,07,07,14,23,22.20
2017,07,07,14,24,22.20
2017,07,07,14,25,22.30
2017,07,07,14,26,22.20
2017,07,07,14,27,22.30
2017,07,07,14,28,22.30
2017,07,07,14,29,22.30
2017,07,07,14,30,22.30
2017,07,07,14,31,22.20
2017,07,07,14,32,22.10
2017,07,07,14,33,22.00
2017,07,07,14,34,21.90
2017,07,07,14,35,21.90
2017,07,07,14,36,21.90
2017,07,07,14,37,21.90
2017,07,07,14,38,21.90
2017,07,07,14,39,21.80
2017,07,07,14,40,21.90
2017,07,07,14,41,22.00
2017,07,07,14,42,22.10
2017,07,07,14,43,22.20
2017,07,07,14,44,22.10
2017,07,07,14,45,22.00
2017,07,07,14,46,22.00
2017,07,07,14,47,22.00
2017,07,07,14,48,21.90
2017,07,07,14,49,21.80
2017,07,07,14,50,21.80
2017,07,07,14,51,21.80
2017,07,07,14,52,21.80
2017,07,07,14,53,21.80
2017,07,07,14,54,21.70
2017,07,07,14,55,21.60
2017,07,07,14,56,21.50
2017,07,07,14,57,21.30
2017,07,07,14,58,21.20
2017,07,07,14,59,21.20
2017,07,07,15,00,21.20
2017,07,07,15,01,21.20
2017,07,07,15,02,21.20
2017,07,07,15,03,21.30
2017,07,07,15,04,21.30
2017,07,07,15,05,21.40
2017,07,07,15,06,21.50
2017,07,07,15,07,21.60
2017,07,07,15,08,21.60
2017,07,07,15,09,21.70
2017,07,07,15,10,21.80
2017,07,07,15,11,21.80
2017,07,07,15,12,21.90
2017,07,07,15,13,21.80
2017,07,07,15,14,21.90
2017,07,07,15,15,21.90
2017,07,07,15,16,22.10
2017,07,07,15,17,22.20
2017,07,07,15,18,22.20
2017,07,07,15,19,22.10
2017,07,07,15,20,22.10
2017,07,07,15,21,22.10
2017,07,07,15,22,22.20
2017,07,07,15,23,22.20
2017,07,07,15,24,22.10
2017,07,07,15,25,22.10
2017,07,07,15,26,22.00
2017,07,07,15,27,22.00
2017,07,07,15,28,22.00
2017,07,07,15,29,21.90
2017,07,07,15,30,21.80
2017,07,07,15,31,21.80
2017,07,07,15,32,21.80
2017,07,07,15,33,21.80
2017,07,07,15,34,21.90
2017,07,07,15,35,21.90
2017,07,07,15,36,21.90
2017,07,07,15,37,22.00
2017,07,07,15,38,21.90
2017,07,07,15,39,21.90
2017,07,07,15,40,21.90
2017,07,07,15,41,21.90
2017,07,07,15,42,21.90
2017,07,07,15,43,21.90
2017,07,07,15,44,21.90
2017,07,07,15,45,21.80
2017,07,07,15,46,21.80
2017,07,07,15,47,21.90
2017,07,07,15,48,21.90
2017,07,07,15,49,22.00
2017,07,07,15,50,22.10
2017,07,07,15,51,22.00
2017,07,07,15,52,21.90
2017,07,07,15,53,21.90
2017,07,07,15,54,22.00
2017,07,07,15,55,22.10
2017,07,07,15,56,22.10
2017,07,07,15,57,22.20
2017,07,07,15,58,22.20
2017,07,07,15,59,22.30
2017,07,07,16,00,22.20
2017,07,07,16,01,22.20
2017,07,07,16,02,22.20
2017,07,07,16,03,22.30
2017,07,07,16,04,22.30
2017,07,07,16,05,22.30
2017,07,07,16,06,22.30
2017,07,07,16,07,22.20
2017,07,07,16,08,22.20
2017,07,07,16,09,22.30
2017,07,07,16,10,22.30
2017,07,07,16,11,22.40
2017,07,07,16,12,22.30
2017,07,07,16,13,22.30
2017,07,07,16,14,22.30
2017,07,07,16,15,22.40
2017,07,07,16,16,22.40
2017,07,07,16,17,22.50
2017,07,07,16,18,22.50
2017,07,07,16,19,22.40
2017,07,07,16,20,22.50
2017,07,07,16,21,22.60
2017,07,07,16,22,22.50
2017,07,07,16,23,22.50
2017,07,07,16,24,22.50
2017,07,07,16,25,22.60
2017,07,07,16,26,22.60
2017,07,07,16,27,22.60
2017,07,07,16,28,22.50
2017,07,07,16,29,22.60
2017,07,07,16,30,22.60
2017,07,07,16,31,22.50
2017,07,07,16,32,22.30
2017,07,07,16,33,22.20
2017,07,07,16,34,22.20
2017,07,07,16,35,22.20
2017,07,07,16,36,22.20
2017,07,07,16,37,22.10
2017,07,07,16,38,22.10
2017,07,07,16,39,22.10
2017,07,07,16,40,22.10
2017,07,07,16,41,22.10
2017,07,07,16,42,22.10
2017,07,07,16,43,22.10
2017,07,07,16,44,22.20
2017,07,07,16,45,22.30
2017,07,07,16,46,22.30
2017,07,07,16,47,22.30
2017,07,07,16,48,22.30
2017,07,07,16,49,22.20
2017,07,07,16,50,22.20
2017,07,07,16,51,22.00
2017,07,07,16,52,21.90
2017,07,07,16,53,21.80
2017,07,07,16,54,21.90
2017,07,07,16,55,22.00
2017,07,07,16,56,22.00
2017,07,07,16,57,22.10
2017,07,07,16,58,22.10
2017,07,07,16,59,22.10
2017,07,07,17,00,22.10
2017,07,07,17,01,22.10
2017,07,07,17,02,22.20
2017,07,07,17,03,22.10
2017,07,07,17,04,22.10
2017,07,07,17,05,22.00
2017,07,07,17,06,22.00
2017,07,07,17,07,22.00
2017,07,07,17,08,21.90
2017,07,07,17,09,21.80
2017,07,07,17,10,21.90
2017,07,07,17,11,22.00
2017,07,07,17,12,22.10
2017,07,07,17,13,22.20
2017,07,07,17,14,22.20
2017,07,07,17,15,22.10
2017,07,07,17,16,22.10
2017,07,07,17,17,22.10
2017,07,07,17,18,22.00
2017,07,07,17,19,22.00